Tracking 25949 objects as of 9-Aug-2022
HD Live streaming from Space Station
objects crossing your sky now

STARLINK-4375

Track STARLINK-4375 now!
10-day predictions
STARLINK-4375 is classified as:


NORAD ID: 53192
Int'l Code: 2022-084D
Perigee: 399.5 km
Apogee: 402.0 km
Inclination: 97.7 °
Period: 92.4 minutes
Semi major axis: 6771 km
RCS: Unknown
Launch date: July 22, 2022
Source: United States (US)
Launch site: AIR FORCE WESTERN TEST RANGE (AFWTR)
aabbcc
Your satellite tracking list
Your tracking list is empty




NASA's NSSDC Master Catalog

Two Line Element Set (TLE):
1 53192U 22084D   22221.16667824 -.01063508  00000-0 -15653-1 0  9991
2 53192  97.6554 280.1877 0001823 105.7632  38.2461 15.57949600  3271
Source of the keplerian elements: AFSPC